GW1833 Weather Reports


time (UTC)temp
C
wind
direction
speed
KPH
gust
KPH
rain 1hr
cm
rain 24hr
cm
rain mn
cm
humidity
%
barometer
mb
20260906090058 28 246 9.7 17.7 0.00 0.00 0.00 52 1018.5
20260906084552 28 215 9.7 16.1 0.00 0.00 0.00 50 1018.3
20260906083057 28 228 9.7 16.1 0.00 0.00 0.00 48 1018.3
20260906081557 28 245 8.0 12.9 0.00 0.00 0.00 46 1018.2
20260906074554 28 219 9.7 12.9 0.00 0.00 0.00 41 1018.2
20260906073100 28 219 4.8 9.7 0.00 0.00 0.00 38 1018.1
20260906071601 28 228 4.8 8.0 0.00 0.00 0.00 40 1018.0
20260906070057 28 220 6.4 11.3 0.00 0.00 0.00 40 1017.8
20260906064558 28 236 3.2 6.4 0.00 0.00 0.00 41 1017.7
20260906063057 27 239 3.2 6.4 0.00 0.00 0.00 46 1017.4
20260906061559 26 0 3.2 6.4 0.00 0.00 0.00 52 1017.3
20260906060054 25 237 4.8 8.0 0.00 0.00 0.00 56 1017.3
20260906054606 24 234 3.2 6.4 0.00 0.00 0.00 57 1017.2
20260906053100 22 212 3.2 6.4 0.00 0.00 0.00 57 1017.3
20260906051605 20 0 0.0 0.0 0.00 0.00 0.00 59 1017.3
20260906050058 19 0 0.0 1.6 0.00 0.00 0.00 59 1017.2
20260906044603 19 0 0.0 3.2 0.00 0.00 0.00 60 1017.0
20260906043052 18 0 0.0 4.8 0.00 0.00 0.00 60 1016.8
20260906041557 18 0 0.0 0.0 0.00 0.00 0.00 59 1016.9
20260906040135 19 211 0.0 4.8 0.00 0.00 0.00 58 1016.5
20260906034604 19 0 0.0 4.8 0.00 0.00 0.00 59 1016.5
20260906033108 20 209 0.0 4.8 0.00 0.00 0.00 58 1016.4
20260906031556 20 204 1.6 6.4 0.00 0.00 0.00 60 1016.5
20260906030101 20 0 0.0 0.0 0.00 0.00 0.00 53 1016.5
20260906024610 20 0 0.0 4.8 0.00 0.00 0.00 53 1016.4
20260906023103 19 0 0.0 4.8 0.00 0.00 0.00 55 1016.2
20260906021556 19 0 0.0 0.0 0.00 0.00 0.00 56 1016.2
20260906020053 19 0 0.0 0.0 0.00 0.00 0.00 58 1016.2
20260906014557 19 0 0.0 0.0 0.00 0.00 0.00 59 1016.2
20260906013101 19 0 0.0 1.6 0.00 0.00 0.00 60 1016.1
20260906011556 19 0 0.0 0.0 0.00 0.00 0.00 65 1016.2
20260906010052 19 0 0.0 0.0 0.00 0.00 0.00 66 1016.1
20260906004546 19 0 0.0 3.2 0.00 0.00 0.00 64 1016.2
20260906003101 19 0 0.0 0.0 0.00 0.00 0.00 65 1016.2
20260906001607 19 0 0.0 4.8 0.00 0.00 0.00 66 1016.3
20260906000053 19 0 0.0 0.0 0.00 0.00 0.00 65 1016.1
20260905234601 20 0 0.0 0.0 0.00 0.00 0.00 63 1016.2
20260905233102 20 0 0.0 0.0 0.00 0.00 0.00 63 1016.3
20260905231557 19 0 0.0 0.0 0.00 0.00 0.00 63 1016.3
20260905224615 20 0 0.0 0.0 0.00 0.00 0.00 66 1016.1
20260905223106 20 0 0.0 0.0 0.00 0.00 0.00 68 1016.3
20260905221603 20 0 0.0 0.0 0.00 0.00 0.00 69 1016.4
20260905220048 20 0 0.0 0.0 0.00 0.00 0.00 69 1016.4
20260905214602 20 0 0.0 0.0 0.00 0.00 0.00 68 1016.5
20260905213101 20 0 0.0 0.0 0.00 0.00 0.00 69 1016.4
20260905211604 20 0 0.0 0.0 0.00 0.00 0.00 70 1016.4
20260905210104 20 0 0.0 4.8 0.00 0.00 0.00 70 1016.7
20260905204552 20 0 0.0 0.0 0.00 0.00 0.00 68 1016.7
20260905203059 20 0 0.0 0.0 0.00 0.00 0.00 67 1016.5
20260905201559 21 0 0.0 0.0 0.00 0.00 0.00 67 1016.7
20260905200058 22 203 0.0 6.4 0.00 0.00 0.00 67 1016.6
20260905194553 21 198 1.6 6.4 0.00 0.00 0.00 68 1016.7
20260905193055 22 221 3.2 4.8 0.00 0.00 0.00 68 1016.7
20260905191600 23 223 0.0 8.0 0.00 0.00 0.00 69 1016.7
20260905190057 23 214 4.8 11.3 0.00 0.00 0.00 68 1016.7
20260905184607 23 223 6.4 11.3 0.00 0.00 0.00 68 1016.8
20260905183100 23 202 3.2 9.7 0.00 0.00 0.00 69 1016.6
20260905181559 23 218 3.2 6.4 0.00 0.00 0.00 69 1016.5
20260905180125 23 215 1.6 8.0 0.00 0.00 0.00 69 1016.4
20260905174547 23 218 4.8 12.9 0.00 0.00 0.00 70 1016.3
20260905173130 23 214 6.4 11.3 0.00 0.00 0.00 69 1016.3
20260905171556 24 207 3.2 9.7 0.00 0.00 0.00 68 1016.1
20260905170108 25 208 4.8 14.5 0.00 0.00 0.00 67 1016.0
20260905164556 25 215 6.4 9.7 0.00 0.00 0.00 66 1015.9
20260905163059 26 236 4.8 12.9 0.00 0.00 0.00 62 1015.6
20260905161606 27 225 6.4 11.3 0.00 0.00 0.00 57 1015.7
20260905160051 28 209 1.6 12.9 0.00 0.00 0.00 54 1015.8
20260905154607 28 172 6.4 12.9 0.00 0.00 0.00 51 1015.7
20260905153054 28 190 3.2 12.9 0.00 0.00 0.00 51 1015.6
20260905151605 28 227 8.0 17.7 0.00 0.00 0.00 52 1015.7
20260905150108 28 230 11.3 19.3 0.00 0.00 0.00 50 1015.7
20260905144557 29 236 11.3 17.7 0.00 0.00 0.00 49 1015.5
20260905143055 29 208 16.1 22.5 0.00 0.00 0.00 50 1015.6
20260905141553 30 227 12.9 19.3 0.00 0.00 0.00 48 1015.7
20260905134557 29 223 14.5 22.5 0.00 0.00 0.00 49 1015.6
20260905133101 30 223 17.7 22.5 0.00 0.00 0.00 49 1015.7
20260905131553 30 215 9.7 17.7 0.00 0.00 0.00 49 1015.7
20260905130059 30 227 12.9 22.5 0.00 0.00 0.00 50 1015.8
20260905124555 30 209 14.5 20.9 0.00 0.00 0.00 48 1016.0
20260905123106 30 240 12.9 19.3 0.00 0.00 0.00 47 1016.2
20260905121558 30 208 12.9 22.5 0.00 0.00 0.00 48 1016.0
20260905120058 30 240 9.7 19.3 0.00 0.00 0.00 47 1016.3
20260905114603 30 242 8.0 19.3 0.00 0.00 0.00 52 1016.4
20260905113055 30 219 12.9 19.3 0.00 0.00 0.00 52 1016.5
20260905111555 30 238 11.3 19.3 0.00 0.00 0.00 45 1016.5
20260905110054 30 219 9.7 17.7 0.00 0.00 0.00 44 1016.6
20260905104600 29 254 12.9 20.9 0.00 0.00 0.00 43 1016.6
20260905103058 28 289 4.8 12.9 0.00 0.00 0.00 45 1016.6
20260905101602 29 273 11.3 20.9 0.00 0.00 0.00 45 1016.7
20260905100117 30 26 4.8 12.9 0.00 0.00 0.00 38 1016.6
20260905094558 30 24 4.8 14.5 0.00 0.00 0.00 38 1016.7
20260905093057 30 34 4.8 14.5 0.00 0.00 0.00 39 1016.9
20260905091603 29 19 6.4 14.5 0.00 0.00 0.00 38 1017.0